Weather History for Kalamazoo, MI

Change the Weather History Date:

Friday, September 23, 2011

  Actual Average Record
Temperature  
Mean Temperature 57 °F 59 °F  
Max Temperature 66 °F 70 °F 89 °F (2010)
Min Temperature 48 °F 49 °F 33 °F (1954)
Degree Days  
Heating Degree Days 8 6  
Month to date heating degree days 73  
Since 1 July heating degree days 89  
Cooling Degree Days 0 1  
Month to date cooling degree days 51  
Year to date cooling degree days 662  
Growing Degree Days 6 (Base 50)    
Moisture  
Dew Point 47 °F    
Average Humidity 79    
Maximum Humidity 94    
Minimum Humidity 47    
Precipitation  
Precipitation 0.13 in 0.12 in 3.50 in (1988)
Month to date precipitation 1.61 3.03  
Year to date precipitation 26.62  
Sea Level Pressure  
Sea Level Pressure 30.06 in    
Wind  
Wind Speed 3 mph (NNW)    
Max Wind Speed 16 mph    
Max Gust Speed 21 mph    
Visibility 9 miles    
Events Rain , Thunderstorm    
T = Trace of Precipitation, MM = Missing Value Source: NWS Daily Summary

Daily Weather History Graph

Daily Weather History Graph

Search for Another Location

Airport:

Trip Planner

Search our weather history database for the weather conditions in past years. The results will help you decide how hot, cold, wet, or windy it might be!

Date:

Astronomy

Sep. 23, 2011 Rise Set
Actual Time 7:30 AM EDT 7:38 PM EDT
Civil Twilight 7:02 AM EDT 8:06 PM EDT
Nautical Twilight 6:29 AM EDT 8:38 PM EDT
Astronomical Twilight 5:56 AM EDT 9:12 PM EDT
Moon 2:51 AM EDT (9/23) 5:12 PM EDT (9/23)
Length of Visible Light 13h 03m
Length of Day
12h 07m
Waning Crescent, 19% of the Moon is Illuminated
Sep 23
Waning Crescent
Sep 27
New
Oct 3
First Quarter
Oct 11
Full
Oct 19
Last Quarter

Hourly Weather History & Observations

Time (EDT) Temp. Dew Point Humidity Pressure Visibility Wind Dir Wind Speed Gust Speed Precip Events Conditions
12:53 AM 52.0 °F 48.0 °F 86% 30.13 in 10.0 mi Calm Calm - N/A   Clear
1:53 AM 52.0 °F 48.0 °F 86% 30.12 in 10.0 mi Calm Calm - N/A   Clear
2:53 AM 51.8 °F 48.2 °F 88% 30.10 in 10.0 mi Calm Calm - N/A   Clear
3:53 AM 51.1 °F 48.0 °F 89% 30.09 in 10.0 mi Calm Calm - N/A   Clear
4:53 AM 48.2 °F 46.4 °F 93% 30.10 in 10.0 mi North 4.6 mph - N/A   Scattered Clouds
5:03 AM 50.0 °F 48.2 °F 94% 30.10 in 10.0 mi Calm Calm - N/A   Mostly Cloudy
5:19 AM 51.8 °F 48.2 °F 88% 30.09 in 10.0 mi Calm Calm - N/A   Scattered Clouds
5:53 AM 48.9 °F 46.9 °F 93% 30.11 in 8.0 mi NNW 4.6 mph - N/A   Clear
6:02 AM 48.2 °F 46.4 °F 93% 30.10 in 8.0 mi North 4.6 mph - N/A   Scattered Clouds
6:10 AM 50.0 °F 46.4 °F 87% 30.09 in 9.0 mi Calm Calm - N/A   Mostly Cloudy
6:22 AM 50.0 °F 48.2 °F 94% 30.09 in 8.0 mi Calm Calm - N/A   Overcast
6:49 AM 51.8 °F 48.2 °F 88% 30.09 in 7.0 mi Calm Calm - N/A   Scattered Clouds
6:53 AM 50.0 °F 48.0 °F 93% 30.10 in 7.0 mi Calm Calm - N/A   Scattered Clouds
7:53 AM 48.2 °F 46.4 °F 93% 30.09 in 3.0 mi Calm Calm - N/A   Partly Cloudy
8:53 AM 51.1 °F 48.0 °F 89% 30.10 in 6.0 mi Calm Calm - N/A   Clear
9:53 AM 55.0 °F 50.0 °F 83% 30.09 in 10.0 mi Calm Calm - N/A   Clear
10:53 AM 59.0 °F 50.0 °F 72% 30.09 in 10.0 mi Calm Calm - N/A   Clear
11:53 AM 62.6 °F 48.2 °F 59% 30.07 in 10.0 mi NNW 9.2 mph - N/A   Mostly Cloudy
12:53 PM 64.0 °F 44.1 °F 48% 30.06 in 10.0 mi NE 5.8 mph - N/A   Mostly Cloudy
1:12 PM 62.6 °F 46.4 °F 55% 30.05 in 10.0 mi NNW 5.8 mph - N/A   Scattered Clouds
1:53 PM 64.4 °F 44.6 °F 49% 30.03 in 10.0 mi NE 5.8 mph - N/A   Scattered Clouds
2:53 PM 64.9 °F 44.1 °F 47% 30.01 in 10.0 mi Calm Calm - N/A   Scattered Clouds
3:53 PM 63.0 °F 44.1 °F 50% 30.01 in 10.0 mi North 4.6 mph - N/A   Overcast
4:53 PM 57.0 °F 46.9 °F 69% 30.01 in 10.0 mi West 11.5 mph - N/A   Overcast
5:53 PM 57.0 °F 48.0 °F 72% 30.01 in 10.0 mi NW 9.2 mph - N/A   Overcast
6:53 PM 55.9 °F 45.0 °F 67% 30.01 in 10.0 mi NW 5.8 mph - N/A   Overcast
7:53 PM 52.0 °F 46.0 °F 80% 30.02 in 10.0 mi NNW 3.5 mph - N/A   Scattered Clouds
8:53 PM 50.0 °F 45.0 °F 83% 30.02 in 10.0 mi NW 4.6 mph - N/A   Mostly Cloudy
9:53 PM 53.1 °F 46.0 °F 77% 30.02 in 10.0 mi Calm Calm - N/A   Overcast
10:53 PM 52.0 °F 46.9 °F 83% 30.04 in 10.0 mi SW 6.9 mph - 0.00 in Rain , Thunderstorm Light Thunderstorms and Rain
10:55 PM 51.8 °F 46.4 °F 82% 30.03 in 9.0 mi SW 6.9 mph - 0.00 in Rain , Thunderstorm Light Thunderstorms and Rain
11:07 PM 51.8 °F 46.4 °F 82% 30.03 in 6.0 mi SW 9.2 mph - 0.01 in Rain Light Rain
11:53 PM 51.1 °F 48.0 °F 89% 30.04 in 3.0 mi NNE 4.6 mph - 0.10 in Rain Rain